Regional Weather Roundup
Issued by NWS

Home | Current Version | Previous Version | Graphics & Text | Print | Product List | Glossary On
Versions: 1 2 3 4 5 6 7 8 9 10 11 12 13 14 15 16 17 18 19 20 21 22 23 24 25 26 27 28 29 30 31 32 33 34 35 36 37 38 39 40 41 42 43 44 45 46 47 48 49 50
000
ASUS45 KCYS 301810
RWRWY

WYOMING REGIONAL WEATHER ROUNDUP
NATIONAL WEATHER SERVICE CHEYENNE WY
1200 PM MDT TUE SEP 30 2014

NOTE:  "FAIR" INDICATES FEW OR NO CLOUDS BELOW 12,000 FEET
WITH NO SIGNIFICANT WEATHER AND/OR OBSTRUCTIONS TO VISIBILITY.

WYZ001-301900-
YELLOWSTONE NATIONAL PARK

CITY           SKY/WX    TMP DP  RH WIND       PRES   REMARKS
LK YELLOWSTONE   N/A     43  35  73 W8        29.93F
6HR MIN TEMP:  38; 6HR MAX TEMP:  43;

W YELLOWSTONE  NOT AVBL

$$
WYZ002>013-054>058-071-098>099-301900-
NORTHERN WYOMING

CITY           SKY/WX    TMP DP  RH WIND       PRES   REMARKS
JACKSON        CLOUDY    46  43  87 S12       29.93R
CODY           CLOUDY    57  39  51 W10G18    29.76F
GREYBULL       CLOUDY    57  45  64 VRB3      29.74F
6HR MIN TEMP:  42; 6HR MAX TEMP:  57;

WORLAND        CLOUDY    56  46  69 SW3       29.75S
6HR MIN TEMP:  41; 6HR MAX TEMP:  56;

SHERIDAN       PTSUNNY   62  41  46 NW24G31   29.69F
6HR MIN TEMP:  50; 6HR MAX TEMP:  62;

BUFFALO        PTSUNNY   57  41  55 N20G28    29.73F
6HR MIN TEMP:  50; 6HR MAX TEMP:  59;

GILLETTE       CLOUDY    53  48  83 W17       29.67F
6HR MIN TEMP:  50; 6HR MAX TEMP:  53; 6HR PCP:  0.32;

HULETT         LGT RAIN  52  50  93 NW9       29.64
NEWCASTLE      RAIN      50  50 100 NW18G28   29.65

$$
WYZ014>020-022>026-101>103-301900-
CENTRAL WYOMING

CITY           SKY/WX    TMP DP  RH WIND       PRES   REMARKS
BIG PINEY      LGT RAIN  46  40  79 E5        29.95S
6HR MIN TEMP:  34; 6HR MAX TEMP:  46; 6HR PCP: TRACE;

PINEDALE       LGT RAIN  45  39  81 W9        29.95S
DUBOIS         MOCLDY    48  36  61 NW14G24   29.87S
LANDER         CLOUDY    57  35  43 SE6       29.81S
6HR MIN TEMP:  40; 6HR MAX TEMP:  58;

RIVERTON       CLOUDY    57  37  47 W16       29.81R
6HR MIN TEMP:  45; 6HR MAX TEMP:  61;

CASPER         MOSUNNY   62  35  36 SW14G21   29.77F
6HR MIN TEMP:  45; 6HR MAX TEMP:  62;

DOUGLAS        PTSUNNY   63  38  39 W24G33    29.75S
6HR MIN TEMP:  53; 6HR MAX TEMP:  64;


$$
WYZ021-027>030-104>119-301900-
SOUTHERN WYOMING

CITY           SKY/WX    TMP DP  RH WIND       PRES   REMARKS
EVANSTON       LGT RAIN  47  41  80 SW17      30.02S
6HR MIN TEMP:  41; 6HR MAX TEMP:  47; 6HR PCP:  0.02;

KEMMERER       DRIZZLE   45  41  87 W14G26    29.99S
FORT BRIDGER   FAIR      52  44  74 W23G32    30.02S
ROCK SPRINGS   CLOUDY    48  41  76 W20G28    29.96S
6HR MIN TEMP:  40; 6HR MAX TEMP:  48;

DIXON          DRIZZLE   48  41  77 SW16      30.01S
RAWLINS        CLOUDY    48  38  68 SW24G31   29.92R
6HR MIN TEMP:  40; 6HR MAX TEMP:  52;

SARATOGA       FAIR      50  37  62 W23G31    29.94F
LARAMIE        CLOUDY    50  34  54 W17G26    29.90F
6HR MIN TEMP:  42; 6HR MAX TEMP:  51;

CHEYENNE       MOSUNNY   58  34  40 W23G31    29.87S
6HR MIN TEMP:  49; 6HR MAX TEMP:  59;

TORRINGTON     MOSUNNY   65  41  41 W23G38    29.73S
6HR MIN TEMP:  50; 6HR MAX TEMP:  65; 6HR PCP: TRACE;

PINE BLUFFS    FAIR      64  34  32 W26G37    29.84S

$$


USA.gov is the U.S. government's official web portal to all federal, state and local government web resources and services.